Regional Weather Roundup
Issued by NWS Newport/Morehead, NC

Current Version | Previous Version | Text Only | Print | Product List | Glossary On
Versions: 1 2 3 4 5 6 7 8 9 10 11 12 13 14 15 16 17 18 19 20 21 22 23 24 25 26 27 28 29 30 31 32 33 34 35 36 37 38 39 40 41 42 43 44 45 46 47 48 49 50
000 ASUS42 KMHX 040213 RWRMHX WEATHER ROUNDUP FOR EASTERN NORTH CAROLINA NATIONAL WEATHER SERVICE NEWPORT/MOREHEAD CITY NC 1000 PM EDT TUE MAY 03 2016 NOTE: "FAIR" INDICATES FEW OR NO CLOUDS BELOW 12,000 FEET WITH NO SIGNIFICANT WEATHER AND/OR OBSTRUCTIONS TO VISIBILITY NCZ015>017-031-032-045>047-102-103-040300- NORTH COAST CITY SKY/WX TMP DP RH WIND PRES REMARKS EDENTON CLOUDY 70 70 100 S10 29.75R ELIZABETH CITY CLOUDY 69 66 90 S8 29.74F KITTY HAWK CLEAR 68 65 90 SW7 29.76R MANTEO NOT AVBL $$ NCZ045>047-081-094-103-104-040300- CENTRAL COAST CITY SKY/WX TMP DP RH WIND PRES REMARKS FRISCO PTCLDY 70 68 93 SW9 29.78R SWANQUARTER NOT AVBL $$ NCZ095-097-098-100-101-040300- SOUTHERN COAST CITY SKY/WX TMP DP RH WIND PRES REMARKS BEAUFORT MOCLDY 71 70 96 SW9 29.78R CEDAR ISLAND NOT AVBL JACKSONVILLE CLOUDY 70 67 90 SW7 29.76R PINEY ISLAND NOT AVBL WILMINGTON CLEAR 70 67 90 S8 29.77F $$ NCZ011>013-027>030-043-044-078>080-089-090>093-098-040300- COASTAL PLAIN CITY SKY/WX TMP DP RH WIND PRES REMARKS AHOSKIE CLOUDY 69 66 90 CALM 29.76R CLINTON PTCLDY 66 65 98 CALM 29.77R ELIZABETHTOWN CLOUDY 70 65 86 SE3 29.76F GOLDSBORO MOCLDY 67 67 99 SE7 29.74F GREENVILLE CLOUDY 64 64 100 S8 29.79F HAVELOCK PTCLDY 69 67 93 S5 29.78S KENANSVILLE CLOUDY 69 64 85 CALM 29.77S KINSTON CLOUDY 64 61 88 NE5 29.78S NEW BERN PTCLDY 68 66 93 CALM 29.79R RICHLANDS NOT AVBL ROCKY MOUNT CLOUDY 63 62 97 S3 29.74F WASHINGTON HVY RAIN 64 63 95 S12 29.77S WHITEVILLE NOT AVBL $$ AMZ130-135-150-152-154-156-158-170-250-252-270-ANZ085-086-088-633-658-670-040300- MARINE OBSERVATIONS STATION/POSITION TIME TEMP WIND PRES WAVE SWELL AIR SEA DIR/SP/G HT/PER HT/PER (UTC) (F) (DEG/KT/KT) (MB) (FT/S) (FT/S) CHESAPEAKE LIGHT 0200 62 20/ 15/ 16 1008.1 64 E VA BEACH 0150 59 54 200/ 10/ 12 1007.7 4/ 7 3/ 7 DUCK NOT AVBL 2 E DUCK 0111 59 N/A 2/10 OREGON INLET 0100 70 72 1007.8 13E OREGON INLT 0200 62 N/A 3/ 8 2/ 8 HATTERAS CG 0100 70 69 1007.9 DIAMOND BUOY 0150 74 72 220/ 16/ 19 1008.1 5/ 6 2/ 8 CAPE LOOKOUT 0200 71 220/ 9/ 12 1008.2 BEAUFORT LAB 0100 71 67 1007.1 30 SE NEW RVR IN 0125 71 N/A 6/ 8 27 SE WRIGHTSVLE 0108 73 73 220/ 12/ 16 N/A 5 SE WRIGHTSVLE 0108 71 70 210/ 10/ 14 1009.5 225 S CAPE HAT 0150 74 74 180/ 17/ 21 1011.7 4/ 6 2/ 9 41 SE CHARLESTON 0150 76 75 210/ 14/ 17 1008.6 4/ 9 2/ 9 $$

USA.gov is the U.S. government's official web portal to all federal, state and local government web resources and services.